Culdrose, United Kingdom

8:52 PM BST on April 27, 2017 (GMT +0100)
Culdrose Navy

Weather History for EGDR - September, 2012

Change the Weather History Date:

Saturday, September 8, 2012

  Actual Average Record
Temperature  
Mean Temperature 56 °F -  
Max Temperature 67 °F 60 °F 69 °F (2007)
Min Temperature 44 °F 51 °F 44 °F (2012)
Degree Days  
Heating Degree Days 10    
Growing Degree Days 6 (Base 50)    
Moisture  
Dew Point 57 °F    
Average Humidity 93    
Maximum Humidity 100    
Minimum Humidity 78    
Precipitation  
Precipitation 0.01 in - - ()
Sea Level Pressure  
Sea Level Pressure 30.09 in    
Wind  
Wind Speed 8 mph ()    
Max Wind Speed 13 mph    
Max Gust Speed -    
Visibility 3.6 miles    
Events Fog    
Averages and records for this station are not official NWS values.
T = Trace of Precipitation, MM = Missing Value Source: Averaged Metar Reports

Daily Weather History Graph

Daily Weather History Graph

Search for Another Location

Airport or City:

Trip Planner

Search our weather history database for the weather conditions in past years. The results will help you decide how hot, cold, wet, or windy it might be!

Date:

Astronomy

Sep. 08, 2012 Rise Set
Actual Time 6:46 AM BST 7:49 PM BST
Civil Twilight 6:13 AM BST 8:22 PM BST
Nautical Twilight 5:33 AM BST 9:01 PM BST
Astronomical Twilight 4:51 AM BST 9:44 PM BST
Moon 11:38 PM BST (9/8) 3:01 PM BST (9/8)
Length of Visible Light 14h 08m
Length of Day
13h 02m
Waning Gibbous, 51% of the Moon is Illuminated
Sep 8
Waning Gibbous
Sep 8
Last Quarter
Sep 16
New
Sep 22
First Quarter
Sep 30
Full

Hourly Weather History & Observations

Time (BST) Temp. Windchill Dew Point Humidity Pressure Visibility Wind Dir Wind Speed Gust Speed Precip Events Conditions
12:50 AM 51 °F - 50 °F 94% 30.25 in 7 mi ENE 5.8 mph - -   Mist
12:50 AM 51.8 °F - 50.0 °F 94% 30.24 in 6.2 mi ENE 5.8 mph - N/A   Partly Cloudy
1:50 AM 50.0 °F - 48.2 °F 94% 30.21 in 6.2 mi ENE 8.1 mph - N/A   Partly Cloudy
2:50 AM 51.8 °F - 51.8 °F 100% 30.18 in 0.2 mi ENE 10.4 mph - N/A Fog Fog
3:50 AM 49 °F - 49 °F 99% 30.20 in 0 mi East 8.1 mph - - Fog Partial Fog
3:50 AM 50.0 °F - 48.2 °F 94% 30.18 in 0.4 mi East 8.1 mph - N/A Fog Fog
4:50 AM 44.6 °F 39.7 °F 44.6 °F 100% 30.15 in 0.3 mi East 9.2 mph - N/A Fog Fog
5:50 AM 48.2 °F - 48.2 °F 100% 30.15 in 0.2 mi East 10.4 mph - N/A Fog Fog
6:50 AM 51.8 °F - 51.8 °F 100% 30.15 in 0.3 mi East 9.2 mph - N/A Fog Fog
7:50 AM 51.8 °F - 51.8 °F 100% 30.15 in 0.1 mi East 12.7 mph - N/A Fog Fog
8:50 AM 55.4 °F - 55.4 °F 100% 30.15 in 0.1 mi East 8.1 mph - N/A Fog Fog
9:50 AM 60 °F - 60 °F 98% 30.15 in 4 mi East 6.9 mph - - Fog Light Fog
9:50 AM 60.8 °F - 59.0 °F 94% 30.12 in 3.7 mi East 6.9 mph - N/A   Mostly Cloudy
10:50 AM 64.4 °F - 60.8 °F 88% 30.12 in 5.0 mi East 9.2 mph - N/A   Haze
11:50 AM 66.2 °F - 60.8 °F 83% 30.12 in 6.2 mi ESE 11.5 mph - N/A   Haze
12:50 PM 67 °F - 62 °F 78% 30.12 in 7 mi ESE 11.5 mph - -   Haze
12:50 PM 66.2 °F - 62.6 °F 88% 30.09 in 6.2 mi ESE 11.5 mph - N/A   Haze
1:50 PM 66.2 °F - 60.8 °F 83% 30.09 in 6.2 mi ESE 11.5 mph - N/A   Haze
2:50 PM 66.2 °F - 60.8 °F 83% 30.06 in 6.2 mi ESE 10.4 mph - N/A   Haze
3:50 PM 66 °F - 62 °F 82% 30.06 in 9 mi East 11.5 mph - -   Haze
3:50 PM 66.2 °F - 62.6 °F 88% 30.04 in 6.2 mi East 11.5 mph - N/A   Haze
4:50 PM 66.2 °F - 62.6 °F 88% 30.01 in 6.2 mi East 12.7 mph - N/A   Haze
5:50 PM 64.4 °F - 60.8 °F 88% 30.01 in 6.2 mi ESE 11.5 mph - N/A   Haze
6:50 PM 63 °F - 60 °F 89% 30.01 in 6 mi ESE 9.2 mph - -   Haze
6:50 PM 62.6 °F - 60.8 °F 94% 30.01 in 6.2 mi ESE 9.2 mph - N/A   Haze
7:50 PM 59.0 °F - 59.0 °F 100% 29.98 in 2.8 mi East 9.2 mph - N/A Fog Fog
8:50 PM 59.0 °F - 59.0 °F 100% 30.01 in 0.6 mi East 11.5 mph - N/A Fog Fog
9:50 PM 59 °F - 58 °F 97% 29.99 in 1 mi ESE 11.5 mph - - Fog Partial Fog
9:50 PM 59.0 °F - 59.0 °F 100% 29.98 in 0.6 mi ESE 11.5 mph - N/A Fog Fog
10:50 PM 59.0 °F - 57.2 °F 94% 29.95 in 0.1 mi ESE 10.4 mph - N/A Fog Fog
11:50 PM 57.2 °F - 57.2 °F 100% 29.95 in 0.1 mi East 10.4 mph - N/A Fog Fog